• Join FlightAware (Why Join?)
  • Login
  • US Flag GB Flag 
00:33 EST


 

Airport Tracker/Info


-or-


 

Live Flight TrackerFlight Track Log ✈ CTL13 ✈ 04-Apr-2013 ✈ KEYE - KMDW

Flight Track Log - Related Links

Times and Time Zones

All times are in EDT time to prevent confusion due to time zone crossing. See the CTL13 flight status page for this flight to view local times or setup timezone preferences in your user account.

Time Position Orientation Groundspeed Altitude Reporting Facility
EDT Latitude Longitude Course Direction KTS MPH feet Rate Location/Type
20:24 39.9333 -86.3000 339° North 160 184 2,400  Level Indianapolis TRACON
20:25 39.9667 -86.3333 323° Northwest 159 183 3,000 480 Climbing Indianapolis TRACON
20:27 40.0225 -86.4131 312° West 161 185 3,900 360 Climbing Indianapolis Center
20:28 40.0550 -86.4533 317° Northwest 160 184 4,200 360 Climbing Indianapolis Center
20:29 40.0936 -86.4994 318° Northwest 160 184 4,700 420 Climbing Indianapolis Center
20:30 40.1261 -86.5375 318° Northwest 158 182 5,100 420 Climbing Indianapolis Center
20:31 40.1581 -86.5775 316° Northwest 157 181 5,600 360 Climbing Indianapolis Center
20:32 40.1853 -86.6108 317° Northwest 156 180 5,900 180 Climbing Chicago Center
20:33 40.2222 -86.6553 317° Northwest 155 178 6,000  Climbing Chicago Center
20:34 40.2631 -86.7028 318° Northwest 164 189 6,000  Level Chicago Center
20:35 40.2928 -86.7358 320° Northwest 166 191 6,000  Level Chicago Center
20:36 40.3311 -86.7861 315° West 163 188 6,000  Level Chicago Center
20:37 40.3567 -86.8181 316° Northwest 158 182 6,000  Level Chicago Center
20:38 40.3928 -86.8639 316° Northwest 156 180 6,000  Level Chicago Center
20:39 40.4192 -86.8967 317° Northwest 154 177 6,000  Level Chicago Center
20:40 40.4572 -86.9433 317° Northwest 157 181 6,000  Level Chicago Center
20:41 40.4864 -86.9822 315° West 156 180 6,000  Level Chicago Center
20:42 40.5181 -87.0225 316° Northwest 153 176 6,000  Level Chicago Center
20:43 40.5494 -87.0600 318° Northwest 150 173 6,000  Level Chicago Center
20:44 40.5839 -87.0917 325° Northwest 147 169 6,000  Level Chicago Center
20:45 40.6242 -87.1086 342° North 152 175 6,000  Level Chicago Center
20:46 40.6711 -87.1333 338° Northwest 152 175 6,000  Level Chicago Center
20:47 40.7103 -87.1544 338° Northwest 151 174 6,000  Level Chicago Center
20:48 40.7492 -87.1742 339° North 151 174 6,000  Level Chicago Center
20:49 40.7867 -87.1942 338° Northwest 148 170 6,000  Level Chicago Center
20:50 40.8231 -87.2136 338° Northwest 143 165 6,000  Level Chicago Center
20:51 40.8656 -87.2386 336° Northwest 141 162 6,000  Level Chicago Center
20:52 40.9044 -87.2564 341° North 146 168 6,000  Level Chicago Center
20:54 40.9419 -87.2756 339° North 146 168 6,000  Level Chicago Center
20:55 40.9783 -87.2969 336° Northwest 145 167 6,000 -60 Level Chicago Center
20:56 41.0156 -87.3167 338° Northwest 144 166 5,900 -60 Descending Chicago Center
20:57 41.0606 -87.3394 339° North 145 167 5,900  Level Chicago Center
20:58 41.0978 -87.3592 338° Northwest 144 166 5,900  Level Chicago Center
20:59 41.1347 -87.3797 337° Northwest 145 167 5,900  Level Chicago Center
21:00 41.1722 -87.3997 338° Northwest 145 167 5,900 -240 Level Chicago Center
21:01 41.2128 -87.4203 339° North 152 175 5,500 -600 Descending Chicago Center
21:02 41.2633 -87.4467 339° North 159 183 4,700 -720 Descending Chicago Center
21:03 41.3108 -87.4703 340° North 171 197 4,100 -420 Descending Chicago Center
21:04 41.3561 -87.4933 339° North 176 203 3,900 -120 Descending Chicago Center
21:05 41.3994 -87.5169 338° Northwest 174 200 3,900  Level Chicago Center
21:06 41.4456 -87.5219 355° North 171 197 3,900  Level Chicago Center
21:07 41.5017 -87.5275 356° North 171 197 3,900  Level Chicago Center
21:08 41.5394 -87.4861 39° Northeast 184 212 3,900  Level Chicago Center
21:09 41.5808 -87.4975 348° North 179 206 3,900  Level Chicago Center
21:10 41.6219 -87.5228 335° Northwest 169 194 3,900 -240 Level Chicago Center
21:11 41.6522 -87.5661 313° West 165 190 3,500 -660 Descending Chicago Center
21:12 41.6903 -87.6197 314° West 166 191 2,600 -780 Descending Chicago Center
21:13 41.7200 -87.6622 313° West 163 188 2,000 -480 Descending Chicago Center
21:14 41.7500 -87.7000 317° Northwest 142 163 1,700 -540 Descending Chicago TRACON
21:15 41.7667 -87.7333 304° West 101 116 1,000 -660 Descending Chicago TRACON
21:17 41.7833 -87.7500 334° Northwest  Level FlightAware Approximate